Total_Precipitation_Accumulation
0.91 0.97 1.06 1.16 1.33 1.39 1.38 1.41 1.38 1.37 1.42 1.45 1.48 1.51 1.48 1.44 1.48 1.56 1.48 1.59 1.67 1.77 1.77 1.71 1.70 1.86 1.89 1.76 1.81 1.85 2.03 2.22 2.16 2.04 2.18 2.19 2.08 1.88 1.86 1.85 1.77 1.71 1.50
0.86 0.95 1.06 1.14 1.24 1.33 1.30 1.37 1.49 1.49 1.53 1.52 1.55 1.61 1.52 1.53 1.58 1.49 1.49 1.57 1.65 1.69 1.77 1.93 1.93 1.98 1.94 1.84 1.91 1.93 2.07 2.32 2.33 2.21 2.18 2.18 2.11 2.02 1.92 1.75 1.56 1.51 1.50
0.96 1.04 1.08 1.05 1.14 1.28 1.33 1.36 1.45 1.55 1.62 1.59 1.53 1.54 1.60 1.68 1.66 1.51 1.46 1.45 1.41 1.39 1.53 1.80 2.06 2.31 2.20 2.04 1.97 1.95 2.02 2.13 2.33 2.21 2.14 2.28 2.24 2.12 1.98 1.73 1.55 1.49 1.30
0.91 0.96 1.05 1.09 1.23 1.37 1.41 1.43 1.47 1.49 1.53 1.60 1.62 1.59 1.57 1.57 1.53 1.51 1.53 1.49 1.43 1.34 1.38 1.49 1.63 1.86 2.05 2.19 2.03 1.89 1.94 2.07 2.23 2.26 2.33 2.58 2.64 2.47 2.18 1.90 1.76 1.63 1.46
1.14 1.25 1.30 1.28 1.34 1.47 1.57 1.56 1.60 1.62 1.60 1.74 1.79 1.74 1.68 1.64 1.53 1.62 1.72 1.59 1.58 1.50 1.47 1.45 1.36 1.47 1.64 1.80 1.80 1.98 2.05 2.04 2.17 2.27 2.48 2.91 2.94 2.68 2.22 1.97 1.89 1.84 1.65
1.53 1.69 1.69 1.71 1.74 1.74 1.77 1.76 1.82 1.87 2.03 2.06 1.96 1.89 1.83 1.65 1.75 1.75 1.73 1.72 1.77 1.73 1.67 1.61 1.48 1.39 1.42 1.50 1.56 1.70 1.88 1.95 2.03 2.16 2.35 2.65 2.77 2.64 2.36 2.11 1.90 1.78 1.64
1.56 1.70 1.75 1.78 1.82 1.93 1.96 1.98 2.00 2.08 2.15 2.19 2.24 2.17 2.08 2.11 2.06 1.76 1.70 1.69 1.77 1.80 1.86 1.88 1.58 1.34 1.45 1.42 1.51 1.53 1.51 1.61 1.72 1.87 2.08 2.27 2.59 2.69 2.56 2.17 1.99 1.83 1.59
1.72 1.88 1.95 1.91 1.94 1.99 1.99 1.94 1.95 2.05 2.08 2.06 2.02 1.94 1.92 1.90 1.87 1.62 1.52 1.43 1.55 1.61 1.61 1.62 1.60 1.47 1.37 1.39 1.40 1.33 1.27 1.27 1.34 1.39 1.52 1.79 2.11 2.49 2.68 2.45 2.27 2.06 1.81
1.86 2.03 2.13 2.19 2.26 2.19 2.10 2.10 2.10 2.10 1.97 1.87 1.78 1.74 1.72 1.75 1.74 1.56 1.44 1.32 1.36 1.38 1.37 1.40 1.44 1.36 1.35 1.23 1.17 1.18 1.15 1.10 1.08 1.11 1.16 1.33 1.60 1.93 2.29 2.44 2.18 1.85 1.68
1.81 1.90 2.05 2.14 2.32 2.42 2.35 2.35 2.28 2.18 2.06 1.98 1.89 1.86 1.83 1.87 1.95 1.71 1.55 1.42 1.47 1.49 1.55 1.53 1.46 1.32 1.28 1.12 1.03 1.07 1.02 0.95 0.99 0.97 0.93 0.97 1.09 1.37 1.76 1.92 2.01 1.80 1.56
1.70 1.67 1.81 2.01 2.20 2.33 2.45 2.47 2.47 2.36 2.20 2.00 1.84 1.81 1.82 1.89 1.99 1.83 1.65 1.43 1.45 1.57 1.63 1.67 1.61 1.47 1.18 1.03 0.92 0.89 0.87 0.93 1.00 1.00 0.95 0.98 1.12 1.30 1.46 1.69 1.87 1.83 1.59
1.72 1.81 1.92 2.07 2.15 2.14 2.20 2.27 2.38 2.34 2.26 2.13 1.89 1.68 1.61 1.60 1.61 1.60 1.40 1.28 1.29 1.39 1.52 1.65 1.66 1.53 1.27 1.09 0.94 0.85 0.84 0.80 0.84 0.92 0.92 0.91 0.96 1.07 1.24 1.49 1.69 1.70 1.57
1.90 1.96 2.03 2.11 2.17 2.21 2.19 2.18 2.16 2.09 1.95 1.87 1.76 1.66 1.61 1.56 1.48 1.36 1.16 1.04 1.05 1.11 1.25 1.54 1.63 1.50 1.33 1.12 1.00 0.93 0.82 0.72 0.75 0.77 0.71 0.70 0.74 0.85 1.05 1.37 1.71 1.85 1.76
1.90 1.84 1.79 1.80 1.84 1.88 1.91 1.92 1.93 1.89 1.84 1.76 1.68 1.66 1.60 1.54 1.41 1.31 1.22 1.08 1.06 1.08 1.10 1.28 1.38 1.37 1.22 1.12 1.03 0.90 0.78 0.75 0.73 0.71 0.71 0.75 0.84 0.92 1.03 1.17 1.51 1.78 1.83
1.91 1.88 1.88 1.85 1.80 1.80 1.85 1.91 1.80 1.76 1.76 1.66 1.56 1.63 1.64 1.51 1.44 1.37 1.30 1.22 1.16 1.19 1.16 1.20 1.29 1.37 1.36 1.30 1.27 1.16 1.04 0.97 0.89 0.85 0.91 0.92 0.96 1.01 1.04 1.15 1.39 1.61 1.61
1.91 1.83 1.83 1.87 1.89 1.88 1.87 1.92 1.96 1.77 1.72 1.61 1.54 1.51 1.48 1.38 1.29 1.15 1.11 1.07 0.99 0.95 0.88 0.96 1.14 1.31 1.44 1.47 1.49 1.43 1.31 1.20 1.10 1.07 1.10 1.08 1.06 1.10 1.11 1.14 1.30 1.47 1.51
1.89 1.88 1.90 1.90 1.94 1.91 1.79 1.73 1.77 1.69 1.52 1.42 1.38 1.29 1.23 1.15 1.02 0.94 0.92 0.92 0.86 0.78 0.72 0.85 1.01 1.15 1.33 1.47 1.50 1.45 1.37 1.35 1.37 1.33 1.32 1.29 1.23 1.21 1.23 1.22 1.24 1.36 1.43
1.79 1.85 1.91 1.92 1.91 1.86 1.76 1.68 1.62 1.60 1.49 1.34 1.24 1.16 1.10 1.04 1.03 1.02 0.98 0.91 0.84 0.79 0.75 0.90 1.04 1.18 1.32 1.47 1.50 1.46 1.46 1.47 1.47 1.43 1.45 1.45 1.41 1.36 1.34 1.31 1.26 1.26 1.34
1.50 1.48 1.49 1.54 1.56 1.52 1.44 1.38 1.32 1.28 1.27 1.28 1.16 1.00 1.00 0.97 1.04 1.13 1.02 0.90 0.91 0.91 0.92 0.97 1.02 1.12 1.26 1.41 1.52 1.55 1.57 1.55 1.53 1.53 1.52 1.52 1.53 1.49 1.38 1.36 1.40 1.40 1.36
1.23 1.29 1.21 1.14 1.15 1.17 1.14 1.10 1.06 1.08 1.12 1.20 1.15 0.96 0.90 0.91 1.03 1.16 1.03 1.01 1.04 1.00 0.99 1.01 0.99 1.05 1.22 1.35 1.47 1.56 1.60 1.57 1.52 1.52 1.51 1.50 1.50 1.49 1.41 1.41 1.49 1.49 1.35
1.00 0.95 0.95 0.85 0.85 0.95 1.00 0.97 0.94 0.99 1.06 1.13 1.06 0.90 0.82 0.82 1.06 1.15 1.07 1.05 1.02 0.97 0.98 0.95 0.92 0.99 1.16 1.33 1.42 1.52 1.61 1.59 1.52 1.49 1.54 1.57 1.49 1.44 1.40 1.42 1.46 1.50 1.45
0.71 0.70 0.66 0.63 0.69 0.75 0.78 0.85 0.93 0.99 1.04 1.07 0.98 0.85 0.83 0.86 1.04 1.10 1.03 1.01 1.01 0.98 0.96 0.95 0.91 0.94 1.06 1.20 1.28 1.38 1.50 1.51 1.46 1.44 1.51 1.60 1.55 1.46 1.43 1.42 1.43 1.50 1.54
0.61 0.64 0.64 0.63 0.69 0.69 0.71 0.78 0.94 1.03 1.04 1.03 0.98 0.93 0.92 0.95 1.00 1.03 1.00 0.96 0.94 0.97 0.97 0.99 0.99 0.98 1.03 1.14 1.19 1.27 1.42 1.42 1.38 1.39 1.45 1.49 1.48 1.44 1.43 1.40 1.39 1.46 1.51
0.57 0.62 0.66 0.65 0.63 0.66 0.71 0.74 0.78 0.82 0.88 0.92 0.93 0.90 0.88 0.89 0.93 0.94 0.93 0.92 0.92 0.94 0.96 1.02 1.04 1.05 1.07 1.11 1.13 1.13 1.23 1.24 1.18 1.17 1.23 1.32 1.35 1.36 1.37 1.35 1.32 1.35 1.41
0.58 0.63 0.68 0.74 0.72 0.71 0.72 0.73 0.74 0.74 0.76 0.79 0.84 0.90 0.91 0.89 0.91 0.94 0.97 0.98 0.97 0.96 0.93 0.93 0.97 1.00 0.97 0.93 0.95 0.97 1.05 1.02 0.95 0.95 1.05 1.18 1.22 1.23 1.25 1.24 1.25 1.30 1.38
0.64 0.67 0.72 0.78 0.79 0.77 0.79 0.83 0.85 0.84 0.85 0.82 0.85 0.90 0.96 1.00 1.01 1.02 1.03 1.01 0.98 0.98 0.94 0.95 0.96 0.92 0.89 0.88 0.84 0.87 0.86 0.79 0.80 0.84 0.87 0.96 1.06 1.09 1.13 1.16 1.16 1.21 1.28